Location: Arcadia
(34.1397°N, 118.0353°W)
Time: 22:29:50
(UTC+00:00)

ATLAS 5 CENTAUR R/B - Pass Details

Date: 08 September 2024
Orbit: 409 x 1153 km, 63.3° (Epoch: 13 October)

Event Time Altitude Azimuth Distance (km) Brightness Sun altitude
Exits shadow 12:42:49 - 204° (SSW) 1,892 3.7 -10.6°
Reaches altitude 10° 12:43:48 10° 202° (SSW) 1,472 3.2 -10.4°
Maximum altitude 12:46:58 68° 119° (ESE) 444 1.0 -9.8°
Drops below altitude 10° 12:50:13 10° 36° (NE) 1,514 4.3 -9.1°
Sets 12:52:22 0° 34° (NNE) 2,436 5.4 -8.7°
